TimeMDT,TemperatureF,Dew PointF,Humidity,Sea Level PressureIn,VisibilityMPH,Wind Direction,Wind SpeedMPH,Gust SpeedMPH,PrecipitationIn,Events,Conditions,WindDirDegrees,DateUTC
12:53 AM,39.9,28.0,63,29.91,10.0,Calm,Calm,-,N/A,,Clear,0,2014-04-05 06:53:00
1:53 AM,36.0,27.0,70,29.91,10.0,Calm,Calm,-,N/A,,Clear,0,2014-04-05 07:53:00
2:53 AM,37.0,28.0,70,29.91,10.0,Calm,Calm,-,N/A,,Scattered Clouds,0,2014-04-05 08:53:00
3:53 AM,39.0,27.0,62,29.92,10.0,West,6.9,-,N/A,,Scattered Clouds,270,2014-04-05 09:53:00
4:53 AM,36.0,27.0,70,29.93,10.0,West,5.8,-,N/A,,Partly Cloudy,270,2014-04-05 10:53:00
5:53 AM,37.9,27.0,65,29.93,10.0,West,8.1,-,N/A,,Scattered Clouds,270,2014-04-05 11:53:00
6:53 AM,36.0,26.1,67,29.96,10.0,Calm,Calm,-,N/A,,Mostly Cloudy,0,2014-04-05 12:53:00
7:53 AM,37.9,27.0,65,29.97,10.0,Calm,Calm,-,N/A,,Scattered Clouds,0,2014-04-05 13:53:00
8:53 AM,43.0,26.1,51,29.97,10.0,Variable,3.5,-,N/A,,Partly Cloudy,0,2014-04-05 14:53:00
9:53 AM,45.0,23.0,42,29.98,10.0,WNW,12.7,18.4,N/A,,Mostly Cloudy,290,2014-04-05 15:53:00
10:53 AM,46.0,23.0,40,29.97,10.0,WNW,17.3,-,N/A,,Overcast,290,2014-04-05 16:53:00
11:53 AM,46.0,24.1,42,29.99,10.0,West,19.6,27.6,N/A,,Overcast,260,2014-04-05 17:53:00
12:53 PM,48.9,25.0,39,29.96,10.0,West,21.9,26.5,N/A,,Scattered Clouds,270,2014-04-05 18:53:00
1:53 PM,48.9,23.0,36,29.96,10.0,WSW,18.4,28.8,N/A,,Clear,250,2014-04-05 19:53:00
2:53 PM,50.0,23.0,35,29.95,10.0,West,19.6,27.6,N/A,,Scattered Clouds,270,2014-04-05 20:53:00
3:53 PM,51.1,21.9,32,29.94,10.0,West,15.0,28.8,N/A,,Mostly Cloudy,260,2014-04-05 21:53:00
4:53 PM,50.0,18.0,28,29.94,10.0,WNW,19.6,28.8,N/A,,Mostly Cloudy,290,2014-04-05 22:53:00
5:53 PM,50.0,19.0,29,29.95,10.0,West,18.4,24.2,N/A,,Partly Cloudy,260,2014-04-05 23:53:00
6:53 PM,48.9,19.9,32,29.96,10.0,West,15.0,-,N/A,,Mostly Cloudy,270,2014-04-06 00:53:00
7:53 PM,46.0,19.9,35,29.97,10.0,West,10.4,-,N/A,,Clear,270,2014-04-06 01:53:00
8:53 PM,43.0,21.9,43,29.98,10.0,West,9.2,-,N/A,,Clear,280,2014-04-06 02:53:00
9:53 PM,44.1,23.0,43,29.98,10.0,WSW,11.5,-,N/A,,Clear,250,2014-04-06 03:53:00
10:53 PM,41.0,24.1,51,29.99,10.0,West,5.8,-,N/A,,Scattered Clouds,280,2014-04-06 04:53:00
11:53 PM,42.1,24.1,49,29.99,10.0,WNW,3.5,-,N/A,,Scattered Clouds,290,2014-04-06 05:53:00